Погода в Гатино

Канада     45°29′04″N   75°38′31″W
темп.,
°C
ветер,
м/с
пор.,
м/с
влажн.,
%
обл.,
%
осадки,
мм/ч
давл.,
гПа
погр.,
м
16 мая, вс
вс1623:00+9зсз3495100 0.1 102276
02:00+9сз228983 0.1 102230
05:00+7ссз129023 0.0 102315
08:00+12сз12795 0.0 1024178
11:00+18зюз22588 0.0 1024934
14:00+20зюз445129 0.0 10231800
17:00+16юз467099 0.3 1022396
20:00+12в3589100 0.9 1023112
17 мая, пн
пн1723:00+10сз1191100 0.0 102318
02:00+9ююв119110 0.0 102311
05:00+7ююз11925 0.0 102417
08:00+11ююв11851 0.0 1024204
11:00+17ю22655 0.0 1024676
14:00+20юз24545 0.0 10221162
17:00+19юз2562100 0.0 1021535
20:00+16зюз51063100 0.0 1022360
18 мая, вт
вт1823:00+12з2385100 0.1 102256
02:00+12з2287100 0.1 102348
05:00+10зсз259592 0.1 102497
08:00+14зсз2584100 0.1 1025309
11:00+18ссз3466100 0.0 10251137
14:00+22сз354750 0.0 10231939
17:00+22зсз35519 0.0 10231824
20:00+17юз22756 0.0 102313
19 мая, ср
ср1923:00+13зюз118237 0.0 102414
02:00+12з22875 0.0 102416
05:00+12сз22915 0.0 102430
08:00+16зсз25745 0.0 1026242
11:00+22з34560 0.0 1025751
14:00+24зюз45501 0.0 10241186
17:00+25зюз24490 0.0 10231036
20:00+20юв367688 0.0 1023127
20 мая, чт
чт2023:00+15юз238597 0.0 102359
02:00+15з2488100 0.0 102486
05:00+16з2892100 0.1 1025226
08:00+16ююз2899100 3.6 1026349
11:00+16ююз41098100 3.4 1026577
14:00+18юз5794100 3.8 1025592
17:00+16юз3798100 1.3 1025374
20:00+16ю3999100 5.4 1025369